Погода в Макарове

Россия / Калужская область     54°57′33″N   36°55′18″E
темп.,
°C
ветер,
м/с
пор.,
м/с
влажн.,
%
обл.,
%
осадки,
мм/ч
давл.,
гПа
погр.,
м
25 июля, вс
вс2500:00+11с117227 0.0 101810
03:00+11зсз117257 0.0 101911
06:00+14зюз116540 0.0 102045
09:00+20ю11449 0.0 1020475
12:00+23ссв213395 0.0 10202651
15:00+24св113487 0.0 10202417
18:00+21вюв005299 0.0 102140
21:00+18зсз1158100 0.0 102111
26 июля, пн
пн2600:00+15юз226631 0.0 102327
03:00+13зюз11715 0.0 102310
06:00+14ююв116861 0.0 102316
09:00+19ююз2452100 0.0 1023253
12:00+22юз244780 0.0 1023547
15:00+26зюз243796 0.0 10222555
18:00+24з115836 0.0 102136
21:00+20зюз116499 0.0 102216
27 июля, вт
вт2700:00+18юз2369100 0.0 102253
03:00+18з12715 0.0 102230
06:00+16зюз11820 0.1 102323
09:00+23зюз11555 0.1 1022387
12:00+28зюз233630 0.0 10212526
15:00+27ююз224010 0.0 10201459
18:00+19ююз347629 0.4 102084
21:00+18ююз238640 0.9 101956
28 июля, ср
ср2800:00+16ю11895 0.1 101911
03:00+16ююз22945 0.1 101822
06:00+16ююв119178 0.1 101721
09:00+22ю2367100 0.1 1016348
12:00+24юз2358100 0.0 1015553
15:00+18ю2794100 0.7 1014272
18:00+18юв3109688 0.8 1012389
21:00+17ююв3997100 1.6 1009435
29 июля, чт
чт2900:00+17ююз2998100 0.9 1008285
03:00+18з4109894 0.9 1007446
06:00+17з4119643 0.0 1008533
09:00+22з512690 0.0 1007890
12:00+27зсз694618 0.0 10072177
15:00+28зсз694011 0.0 10072454
18:00+26зсз59465 0.0 10072092
21:00+19зюз23690 0.0 100853